Location: Albany
(35.0170°S, 117.8920°E)
Time: 01:40:45
(UTC+08:00)

Explorer 7 - Pass Details

Date: 28 January 2021
Orbit: 484 x 677 km, 50.3° (Epoch: 01 March)

Event Time Altitude Azimuth Distance (km) Brightness Sun altitude
Rises 16:44:47 0° 256° (WSW) 3,040 11.7 29.8°
Reaches altitude 10° 16:48:02 10° 234° (SW) 2,114 10.8 29.1°
Maximum altitude 16:51:04 16° 196° (SSW) 1,720 9.7 28.5°
Drops below altitude 10° 16:54:03 10° 157° (SSE) 2,070 9.6 27.9°
Sets 16:57:12 0° 135° (SE) 2,946 10.2 27.2°
